DELTA 1 DEB, 10840

Orbit data source: Space-Track

DELTA 1 DEB, 10840 is space debris in SSO originally from a launch on Thu, 29 Jul 1976 UTC launched from the Air Force Western Test Range (AFWTR). Debris objects in space refer to the collection of defunct objects orbiting the Earth. Examples of debris include non-operational satellites, rocket bodies, and fragments generated from explosions, collisions, or faulty payload assembly.

Loading next visibility...
Identifier
10840, 1976-077CL
Orbit
SSO
Country
Flag of USUS
Related business
Manufacturer
Unknown
Mission
Spacecraft
Bus & Motor
Unknown
Mass
Unknown
Launch date (UTC)
1976-07-29 (49 years ago)
Launch vehicle
Unknown
Launch site
Air Force Western Test Range (AFWTR)
Object type
Payload
Rocket body
Debris
Shape & HBR
Unknown shape, 0.3 m
Radar Cross Section
Medium (>0.1 m² and <1 m²)

Expand to show TLE details & history
Last TLE update: 11 hours ago

TLE from 11 hours ago
0 DELTA 1 DEB
1 10840U 76077CL  25311.26618056 -.00000017  00000-0  27379-3 0  9996
2 10840 102.6306  47.0825 0140747  57.3466   7.0096 12.16038252187966
Epoch: 2025-11-07T06:23Z
TLE epoch observation values (Epoch: 2025-11-07T06:23:18.000Z)
Latitude
61.87206°
Longitude
-120.10874°
Altitude
1,508.634 km
Speed
7.166 km/s
True Right ascension
01h 29m 42s
True Declination
61° 44' 33"
Sunlit
Object was in full shadow at epoch
Visualization orbit readout
Latitude
Unknown
Longitude
Unknown
Altitude
Unknown
Speed
Unknown
Apparent Right ascension
Unknown
Apparent Declination
Unknown
Sunlit
N/A
Visualization observer readout
Local Sidereal Time
13:38:44
Azimuth
Unknown
Elevation
Unknown
Doppler factor
Unknown
Orbital elements
Apogee altitude
1,719.883 km
Perigee altitude
1,495.092 km
Semi-major axis
7,985.624 km
Eccentricity
0.01407
Inclination
102.6306°
RAAN
47.0825°
Arg. of periapsis
57.3466°
True anomaly
7.20992°
Mean anomaly
7.0096°
Eccentric anomaly
7.10941°
Mean motion
3.04144 °/min
Orbital period
118.36 mins
BSTAR
0.00027379
Loading maneuver chart data...
Computing Atmospheric mass density...
Loading historical data...
Loading historical data...
Loading historical data...
Loading historical data...
Loading historical data...
Loading historical data...
Loading historical data...

Documentation

Showing up to 5 results
|